N1YZ Weather Reports


Display with metric or nautical units.
time (UTC)temp
F
wind
direction
speed
MPH
gust
MPH
rain 1hr
in
rain 24hr
in
rain mn
in
humidity
%
barometer
mb
20260901225011 91 31 0.0 0.0 0.00 0.00 0.00 56 1036.6
20260901223337 92 51 1.0 1.0 0.00 0.00 0.00 55 1036.3
20260901222832 92 51 1.0 1.0 0.00 0.00 0.00 55 1036.3
20260901222329 92 0 0.0 1.0 0.00 0.00 0.00 56 1036.3
20260901221824 92 9 0.0 0.0 0.00 0.00 0.00 56 1036.2
20260901221320 92 8 0.0 0.0 0.00 0.00 0.00 56 1036.3
20260901220819 92 173 1.0 1.0 0.00 0.00 0.00 55 1036.2
20260901220318 92 21 0.0 0.0 0.00 0.00 0.00 55 1036.4
20260901215817 91 18 0.0 0.0 0.00 0.00 0.00 57 1036.2
20260901215312 92 355 1.0 1.0 0.00 0.00 0.00 57 1036.3
20260901214810 91 83 0.0 1.0 0.00 0.00 0.00 55 1036.2
20260901214309 92 2 0.0 0.0 0.00 0.00 0.00 55 1036.6
20260901213804 92 354 0.0 0.0 0.00 0.00 0.00 55 1036.2
20260901213304 91 27 0.0 1.0 0.00 0.00 0.00 57 1036.4
20260901212759 92 19 0.0 0.0 0.00 0.00 0.00 54 1036.4
20260901212254 92 18 0.0 0.0 0.00 0.00 0.00 56 1036.4
20260901211749 92 0 0.0 0.0 0.00 0.00 0.00 54 1036.4
20260901211246 92 250 1.0 1.0 0.00 0.00 0.00 52 1036.5
20260901210741 92 43 1.0 1.0 0.00 0.00 0.00 56 1036.4
20260901210237 92 341 1.0 2.0 0.00 0.00 0.00 54 1036.5
20260901205733 93 11 3.0 3.0 0.00 0.00 0.00 53 1036.6
20260901205232 94 198 0.0 0.0 0.00 0.00 0.00 53 1036.6
20260901204728 93 182 2.0 2.0 0.00 0.00 0.00 52 1036.6
20260901204224 93 195 1.0 2.0 0.00 0.00 0.00 52 1036.6
20260901203718 93 19 0.0 0.0 0.00 0.00 0.00 55 1036.6
20260901203213 94 184 2.0 2.0 0.00 0.00 0.00 53 1036.6
20260901202712 94 64 0.0 1.0 0.00 0.00 0.00 53 1036.7
20260901202208 93 38 0.0 0.0 0.00 0.00 0.00 51 1036.9
20260901201704 94 59 0.0 0.0 0.00 0.00 0.00 51 1037.0
20260901201203 94 150 0.0 1.0 0.00 0.00 0.00 54 1037.2
20260901200703 93 29 0.0 0.0 0.00 0.00 0.00 53 1037.3
20260901200153 94 23 0.0 0.0 0.00 0.00 0.00 54 1037.2
20260901195650 93 6 0.0 0.0 0.00 0.00 0.00 53 1037.2
20260901195144 93 254 1.0 1.0 0.00 0.00 0.00 54 1037.5
20260901194639 93 13 0.0 0.0 0.00 0.00 0.00 53 1037.3
20260901194129 93 346 1.0 2.0 0.00 0.00 0.00 58 1037.3
20260901193625 93 20 0.0 1.0 0.00 0.00 0.00 54 1037.3
20260901193119 93 36 0.0 1.0 0.00 0.00 0.00 51 1037.3
20260901192614 94 28 0.0 0.0 0.00 0.00 0.00 53 1037.4
20260901192109 93 9 0.0 0.0 0.00 0.00 0.00 53 1037.7
20260901191605 93 44 0.0 1.0 0.00 0.00 0.00 55 1037.7
20260901191101 92 17 0.0 0.0 0.00 0.00 0.00 53 1037.9
20260901190556 93 351 1.0 2.0 0.00 0.00 0.00 54 1037.8
20260901190055 94 33 0.0 0.0 0.00 0.00 0.00 53 1037.9
20260901185554 95 356 0.0 1.0 0.00 0.00 0.00 52 1038.1
20260901185053 95 19 0.0 0.0 0.00 0.00 0.00 50 1038.1
20260901184549 95 126 1.0 2.0 0.00 0.00 0.00 48 1038.0
20260901184043 94 356 0.0 1.0 0.00 0.00 0.00 52 1038.2
20260901183538 93 22 1.0 1.0 0.00 0.00 0.00 54 1038.1
20260901183034 94 25 0.0 1.0 0.00 0.00 0.00 52 1038.3
20260901182530 93 4 0.0 1.0 0.00 0.00 0.00 54 1038.1
20260901182030 93 350 0.0 0.0 0.00 0.00 0.00 56 1038.4
20260901181529 94 346 0.0 0.0 0.00 0.00 0.00 53 1038.2
20260901181028 94 26 0.0 0.0 0.00 0.00 0.00 54 1038.3
20260901180527 94 246 1.0 1.0 0.00 0.00 0.00 51 1038.1
20260901180022 94 36 0.0 1.0 0.00 0.00 0.00 56 1038.5
20260901175516 94 198 1.0 2.0 0.00 0.00 0.00 53 1038.3
20260901175016 93 35 0.0 0.0 0.00 0.00 0.00 54 1038.4
20260901174512 92 357 0.0 0.0 0.00 0.00 0.00 58 1038.5
20260901174008 92 19 0.0 0.0 0.00 0.00 0.00 59 1038.4
20260901173503 93 13 1.0 1.0 0.00 0.00 0.00 56 1038.6
20260901172959 91 352 0.0 0.0 0.00 0.00 0.00 57 1038.6
20260901172454 90 358 1.0 1.0 0.00 0.00 0.00 58 1038.7
20260901171952 93 9 0.0 1.0 0.00 0.00 0.00 57 1038.8
20260901171450 93 205 0.0 1.0 0.00 0.00 0.00 53 1038.7
20260901170949 93 30 0.0 1.0 0.00 0.00 0.00 60 1039.0
20260901170444 92 45 0.0 0.0 0.00 0.00 0.00 56 1038.9
20260901165944 91 7 0.0 0.0 0.00 0.00 0.00 62 1039.0
20260901165439 91 2 1.0 1.0 0.00 0.00 0.00 64 1039.1
20260901164935 92 35 0.0 0.0 0.00 0.00 0.00 61 1039.0
20260901164430 91 351 0.0 0.0 0.00 0.00 0.00 63 1039.1
20260901163925 91 26 0.0 0.0 0.00 0.00 0.00 60 1039.0
20260901163419 91 342 0.0 0.0 0.00 0.00 0.00 62 1039.1
20260901162914 90 11 0.0 0.0 0.00 0.00 0.00 62 1038.9
20260901162414 89 24 0.0 0.0 0.00 0.00 0.00 61 1038.8
20260901161907 89 20 0.0 0.0 0.00 0.00 0.00 59 1039.2
20260901161406 89 142 1.0 2.0 0.00 0.00 0.00 57 1039.1
20260901160901 89 33 0.0 0.0 0.00 0.00 0.00 69 1039.1
20260901160358 89 25 0.0 0.0 0.00 0.00 0.00 66 1039.2
20260901155857 89 356 0.0 0.0 0.00 0.00 0.00 70 1039.4
20260901155352 88 259 0.0 0.0 0.00 0.00 0.00 69 1039.4
20260901154849 88 17 0.0 0.0 0.00 0.00 0.00 67 1039.6
20260901154347 89 332 0.0 0.0 0.00 0.00 0.00 68 1039.4
20260901153842 89 352 0.0 0.0 0.00 0.00 0.00 67 1039.6
20260901153337 89 34 0.0 0.0 0.00 0.00 0.00 68 1039.5
20260901152836 89 359 0.0 0.0 0.00 0.00 0.00 64 1039.7
20260901152336 88 35 0.0 0.0 0.00 0.00 0.00 67 1039.6
20260901151831 88 43 0.0 0.0 0.00 0.00 0.00 67 1039.6
20260901151326 88 19 0.0 0.0 0.00 0.00 0.00 67 1039.7
20260901150825 88 15 0.0 0.0 0.00 0.00 0.00 69 1039.8
20260901150323 88 33 0.0 0.0 0.00 0.00 0.00 70 1039.9
20260901145821 87 342 0.0 0.0 0.00 0.00 0.00 71 1039.8
20260901145321 87 358 0.0 0.0 0.00 0.00 0.00 72 1039.8
20260901144816 87 220 1.0 1.0 0.00 0.00 0.00 72 1039.7
20260901144312 87 289 0.0 0.0 0.00 0.00 0.00 72 1039.5
20260901143808 88 0 0.0 0.0 0.00 0.00 0.00 72 1039.7
20260901143304 87 9 0.0 0.0 0.00 0.00 0.00 72 1039.6
20260901142800 87 350 0.0 0.0 0.00 0.00 0.00 75 1039.8
20260901142258 85 0 0.0 0.0 0.00 0.00 0.00 78 1039.8
20260901141754 84 350 0.0 0.0 0.00 0.00 0.00 80 1039.8
20260901141249 83 1 0.0 0.0 0.00 0.00 0.00 81 1039.8
20260901140748 81 8 0.0 0.0 0.00 0.00 0.00 83 1039.6
20260901140246 81 266 0.0 0.0 0.00 0.00 0.00 84 1039.6
20260901135741 80 349 0.0 0.0 0.00 0.00 0.00 85 1039.6
20260901135236 80 345 0.0 0.0 0.00 0.00 0.00 86 1039.6
20260901134731 80 340 0.0 0.0 0.00 0.00 0.00 86 1039.7
20260901134226 79 312 0.0 0.0 0.00 0.00 0.00 87 1039.6
20260901133725 78 307 0.0 0.0 0.00 0.00 0.00 89 1039.8
20260901133225 78 342 0.0 0.0 0.00 0.00 0.00 91 1039.7
20260901132723 77 321 0.0 0.0 0.00 0.00 0.00 91 1039.7
20260901132218 77 0 0.0 0.0 0.00 0.00 0.00 92 1039.7
20260901131713 77 238 0.0 0.0 0.00 0.00 0.00 92 1039.8
20260901131213 77 28 0.0 0.0 0.00 0.00 0.00 93 1039.9
20260901130708 76 359 0.0 0.0 0.00 0.00 0.00 93 1039.9
20260901130207 76 293 0.0 0.0 0.00 0.00 0.00 94 1040.0
20260901125705 76 266 0.0 0.0 0.00 0.00 0.00 94 1039.8
20260901125200 75 297 0.0 0.0 0.00 0.00 0.00 95 1039.7
20260901124654 75 324 0.0 0.0 0.00 0.00 0.00 95 1039.5
20260901124149 75 284 0.0 0.0 0.00 0.00 0.00 95 1039.6
20260901123644 75 46 0.0 0.0 0.00 0.00 0.00 96 1039.6
20260901123143 74 79 0.0 0.0 0.00 0.00 0.00 96 1039.6
20260901122642 74 87 0.0 0.0 0.00 0.00 0.00 96 1039.6
20260901122137 74 54 0.0 0.0 0.00 0.00 0.00 97 1039.5
20260901121631 74 12 0.0 0.0 0.00 0.00 0.00 97 1039.3
20260901121126 74 20 0.0 0.0 0.00 0.00 0.00 98 1039.2
20260901120621 74 16 0.0 0.0 0.00 0.00 0.00 98 1039.1
20260901120116 74 12 0.0 0.0 0.00 0.00 0.00 98 1039.1
20260901115611 73 26 0.0 0.0 0.00 0.00 0.00 98 1038.7
20260901115108 74 27 0.0 0.0 0.00 0.00 0.00 98 1038.8
20260901114604 74 43 0.0 0.0 0.00 0.00 0.00 98 1038.8
20260901114102 74 83 0.0 0.0 0.00 0.00 0.00 97 1038.6
20260901113601 74 76 0.0 0.0 0.00 0.00 0.00 97 1038.8
20260901113052 74 68 0.0 0.0 0.00 0.00 0.00 96 1038.4
20260901112551 74 34 0.0 0.0 0.00 0.00 0.00 96 1038.7
20260901112046 74 340 0.0 0.0 0.00 0.00 0.00 97 1038.7
20260901111545 74 2 0.0 0.0 0.00 0.00 0.00 96 1038.7
20260901111043 74 2 0.0 0.0 0.00 0.00 0.00 96 1038.7
20260901110539 74 2 0.0 0.0 0.00 0.00 0.00 96 1038.5
20260901110035 74 2 0.0 0.0 0.00 0.00 0.00 96 1038.6
20260901105532 74 2 0.0 0.0 0.00 0.00 0.00 96 1038.5
20260901105030 74 2 0.0 0.0 0.00 0.00 0.00 96 1038.3
20260901104527 74 2 0.0 0.0 0.00 0.00 0.00 96 1038.5
20260901104022 75 2 0.0 0.0 0.00 0.00 0.00 96 1038.4
20260901103521 75 2 0.0 0.0 0.00 0.00 0.00 96 1038.3
20260901103018 75 2 0.0 0.0 0.00 0.00 0.00 96 1038.5
20260901102517 75 2 0.0 0.0 0.00 0.00 0.00 96 1038.3
20260901102012 75 3 0.0 0.0 0.00 0.00 0.00 96 1038.2
20260901101508 75 30 0.0 0.0 0.00 0.00 0.00 96 1038.4
20260901101007 75 25 0.0 0.0 0.00 0.00 0.00 96 1038.2
20260901100502 75 25 0.0 0.0 0.00 0.00 0.00 96 1038.2
20260901100000 75 25 0.0 0.0 0.00 0.00 0.00 96 1038.2
20260901095459 75 29 0.0 0.0 0.00 0.00 0.00 96 1038.4
20260901094957 75 38 0.0 0.0 0.00 0.00 0.00 96 1038.4
20260901094452 75 164 0.0 0.0 0.00 0.00 0.00 96 1038.4
20260901093947 75 176 0.0 0.0 0.00 0.00 0.00 96 1038.3
20260901093442 75 174 0.0 0.0 0.00 0.00 0.00 96 1038.2
20260901092941 75 312 0.0 0.0 0.00 0.00 0.00 95 1037.8
20260901092437 76 353 0.0 0.0 0.00 0.00 0.00 95 1038.1
20260901091934 76 350 0.0 0.0 0.00 0.00 0.00 95 1038.0
20260901091433 76 346 0.0 0.0 0.00 0.00 0.00 95 1038.0
20260901090929 76 321 0.0 0.0 0.00 0.00 0.00 96 1038.2
20260901090428 75 343 0.0 0.0 0.00 0.00 0.00 96 1038.1
20260901085924 75 10 0.0 0.0 0.00 0.00 0.00 96 1038.1
20260901085420 75 9 0.0 0.0 0.00 0.00 0.00 96 1037.9
20260901084916 75 12 0.0 0.0 0.00 0.00 0.00 96 1037.8
20260901084413 75 14 0.0 0.0 0.00 0.00 0.00 96 1038.0
20260901083908 75 16 0.0 0.0 0.00 0.00 0.00 96 1038.0
20260901083408 75 16 0.0 0.0 0.00 0.00 0.00 96 1037.8
20260901082906 76 16 0.0 0.0 0.00 0.00 0.00 96 1037.9
20260901082401 76 33 0.0 0.0 0.00 0.00 0.00 96 1037.7
20260901081855 76 35 0.0 0.0 0.00 0.00 0.00 96 1037.9
20260901081351 76 46 0.0 0.0 0.00 0.00 0.00 96 1037.9
20260901080851 76 59 0.0 0.0 0.00 0.00 0.00 96 1037.7
20260901080345 76 74 0.0 0.0 0.00 0.00 0.00 96 1037.6
20260901075840 76 96 0.0 0.0 0.00 0.00 0.00 96 1037.6
20260901075335 76 52 0.0 0.0 0.00 0.00 0.00 95 1037.5
20260901074830 76 20 0.0 0.0 0.00 0.00 0.00 95 1037.3
20260901074324 76 8 0.0 0.0 0.00 0.00 0.00 95 1037.5
20260901073820 76 8 0.0 0.0 0.00 0.00 0.00 95 1037.5
20260901073315 76 13 0.0 0.0 0.00 0.00 0.00 95 1037.5
20260901072812 76 13 0.0 0.0 0.00 0.00 0.00 94 1037.5
20260901072311 76 355 0.0 0.0 0.00 0.00 0.00 94 1037.8
20260901071807 76 353 0.0 0.0 0.00 0.00 0.00 95 1037.5
20260901071305 77 43 0.0 0.0 0.00 0.00 0.00 94 1037.5
20260901070804 77 13 0.0 0.0 0.00 0.00 0.00 94 1037.7
20260901070259 77 10 0.0 0.0 0.00 0.00 0.00 94 1037.4
20260901065759 77 14 0.0 0.0 0.00 0.00 0.00 94 1037.6
20260901065254 77 8 0.0 0.0 0.00 0.00 0.00 93 1037.5
20260901064750 77 3 0.0 0.0 0.00 0.00 0.00 93 1037.5
20260901064246 77 34 0.0 0.0 0.00 0.00 0.00 93 1037.8
20260901063743 77 40 0.0 0.0 0.00 0.00 0.00 93 1037.8
20260901063239 77 63 0.0 0.0 0.00 0.00 0.00 93 1037.6
20260901062735 77 36 0.0 0.0 0.00 0.00 0.00 93 1037.8
20260901062231 77 350 0.0 0.0 0.00 0.00 0.00 93 1037.7
20260901061726 77 12 0.0 0.0 0.00 0.00 0.00 93 1037.7
20260901061225 77 12 0.0 0.0 0.00 0.00 0.00 93 1037.6
20260901060721 77 155 1.0 1.0 0.00 0.00 0.00 93 1037.6
20260901060217 77 110 0.0 0.0 0.00 0.00 0.00 93 1037.8
20260901055712 77 28 0.0 0.0 0.00 0.00 0.00 92 1037.7
20260901055209 77 11 0.0 0.0 0.00 0.00 0.00 93 1037.8
20260901054705 77 40 0.0 0.0 0.00 0.00 0.00 92 1038.0
20260901054201 77 213 0.0 0.0 0.00 0.00 0.00 92 1037.8
20260901053657 77 300 0.0 0.0 0.00 0.00 0.00 92 1037.8
20260901053153 77 22 0.0 0.0 0.00 0.00 0.00 91 1037.8
20260901052648 78 22 0.0 0.0 0.00 0.00 0.00 91 1037.8
20260901052143 78 3 0.0 0.0 0.00 0.00 0.00 91 1037.9
20260901051642 78 55 0.0 0.0 0.00 0.00 0.00 91 1038.0
20260901051141 78 352 0.0 0.0 0.00 0.00 0.00 91 1037.8
20260901050637 78 352 0.0 0.0 0.00 0.00 0.00 90 1037.8
20260901050132 78 353 0.0 0.0 0.00 0.00 0.00 90 1037.8
20260901045632 78 354 0.0 0.0 0.00 0.00 0.00 90 1037.6
20260901045128 78 354 0.0 0.0 0.00 0.00 0.00 90 1037.8
20260901044623 78 354 0.0 0.0 0.00 0.00 0.00 89 1037.9
20260901044119 78 354 0.0 0.0 0.00 0.00 0.00 89 1037.8
20260901043615 78 11 0.0 0.0 0.00 0.00 0.00 89 1037.8
20260901043110 78 317 0.0 0.0 0.00 0.00 0.00 89 1037.6
20260901042609 79 306 0.0 0.0 0.00 0.00 0.00 89 1037.9
20260901042105 78 1 0.0 0.0 0.00 0.00 0.00 88 1037.9
20260901041600 78 1 0.0 0.0 0.00 0.00 0.00 88 1037.9
20260901041055 79 1 0.0 0.0 0.00 0.00 0.00 87 1037.8
20260901040554 79 1 0.0 0.0 0.00 0.00 0.00 87 1037.9
20260901040049 79 1 0.0 0.0 0.00 0.00 0.00 86 1038.1
20260901035547 79 1 0.0 0.0 0.00 0.00 0.00 86 1038.0
20260901035046 79 1 0.0 0.0 0.00 0.00 0.00 86 1038.1
20260901034545 79 1 0.0 0.0 0.00 0.00 0.00 86 1038.0
20260901034040 79 1 0.0 0.0 0.00 0.00 0.00 85 1037.9
20260901033533 79 1 0.0 0.0 0.00 0.00 0.00 85 1038.0
20260901033034 80 2 0.0 0.0 0.00 0.00 0.00 85 1037.7
20260901032532 80 3 0.0 0.0 0.00 0.00 0.00 85 1037.8
20260901032028 80 3 0.0 0.0 0.00 0.00 0.00 84 1037.8
20260901031523 80 4 0.0 0.0 0.00 0.00 0.00 84 1037.8
20260901031019 80 5 0.0 0.0 0.00 0.00 0.00 83 1037.8
20260901030518 80 7 0.0 0.0 0.00 0.00 0.00 84 1037.8
20260901030013 80 7 0.0 0.0 0.00 0.00 0.00 83 1037.9
20260901025513 80 7 0.0 0.0 0.00 0.00 0.00 82 1038.0
20260901025007 81 7 0.0 0.0 0.00 0.00 0.00 82 1038.0
20260901024502 82 7 0.0 0.0 0.00 0.00 0.00 80 1038.0
20260901024001 82 7 0.0 0.0 0.00 0.00 0.00 79 1037.9
20260901023455 82 7 0.0 0.0 0.00 0.00 0.00 79 1038.2
20260901022950 82 347 0.0 0.0 0.00 0.00 0.00 80 1037.8
20260901022446 82 346 0.0 0.0 0.00 0.00 0.00 80 1038.0
20260901021940 82 347 0.0 0.0 0.00 0.00 0.00 78 1037.9
20260901021436 82 347 0.0 0.0 0.00 0.00 0.00 78 1038.0
20260901020931 82 347 0.0 0.0 0.00 0.00 0.00 78 1037.8
20260901020427 83 347 0.0 0.0 0.00 0.00 0.00 77 1037.7
20260901015925 83 347 0.0 0.0 0.00 0.00 0.00 76 1037.7
20260901015423 83 347 0.0 0.0 0.00 0.00 0.00 76 1037.7
20260901014921 84 347 0.0 0.0 0.00 0.00 0.00 75 1037.7
20260901014418 84 347 0.0 0.0 0.00 0.00 0.00 75 1037.7
20260901013913 84 347 0.0 0.0 0.00 0.00 0.00 75 1037.6
20260901013409 84 347 0.0 0.0 0.00 0.00 0.00 75 1037.3
20260901012904 84 347 0.0 0.0 0.00 0.00 0.00 74 1037.2
20260901012359 84 347 0.0 0.0 0.00 0.00 0.00 74 1037.2
20260901011854 84 347 0.0 0.0 0.00 0.00 0.00 74 1037.2
20260901011350 84 347 0.0 0.0 0.00 0.00 0.00 74 1037.2
20260901010849 84 347 0.0 0.0 0.00 0.00 0.00 73 1037.2
20260901010343 84 347 0.0 0.0 0.00 0.00 0.00 73 1036.9
20260901005842 85 347 0.0 0.0 0.00 0.00 0.00 72 1037.1
20260901005337 85 347 0.0 0.0 0.00 0.00 0.00 72 1037.0
20260901004833 85 348 0.0 0.0 0.00 0.00 0.00 71 1036.9
20260901004326 85 348 0.0 0.0 0.00 0.00 0.00 71 1036.8
20260901003820 86 348 0.0 0.0 0.00 0.00 0.00 70 1036.8
20260901003315 86 348 0.0 0.0 0.00 0.00 0.00 69 1036.9
20260901002808 86 348 0.0 0.0 0.00 0.00 0.00 69 1036.8
20260901002305 87 347 0.0 0.0 0.00 0.00 0.00 68 1036.8
20260901001758 87 348 0.0 0.0 0.00 0.00 0.00 67 1036.8
20260901001254 87 348 0.0 0.0 0.00 0.00 0.00 67 1036.7
20260901000749 87 2 0.0 0.0 0.00 0.00 0.00 67 1036.9
20260901000244 87 27 0.0 0.0 0.00 0.00 0.00 67 1036.9
20260831235742 87 342 0.0 0.0 0.00 0.00 0.00 67 1036.8
20260831235239 87 22 0.0 0.0 0.00 0.00 0.00 67 1036.7
20260831234739 88 6 0.0 0.0 0.00 0.00 0.00 66 1037.1
20260831234238 88 5 0.0 0.0 0.00 0.00 0.00 66 1036.8
20260831233734 88 350 0.0 0.0 0.00 0.00 0.00 66 1036.9
20260831233229 88 351 0.0 0.0 0.00 0.00 0.00 65 1036.8
20260831232724 88 350 0.0 0.0 0.00 0.00 0.00 65 1036.8
20260831232220 88 351 0.0 0.0 0.00 0.00 0.00 65 1036.8
20260831231716 88 28 0.0 0.0 0.00 0.00 0.00 64 1036.8
20260831231213 88 352 0.0 0.0 0.00 0.00 0.00 64 1036.9
20260831230712 89 2 0.0 0.0 0.00 0.00 0.00 64 1037.1
20260831230208 89 48 0.0 0.0 0.00 0.00 0.00 64 1037.2
20260831225707 89 19 0.0 0.0 0.00 0.00 0.00 63 1037.1